Location: Poughquag
(41.6090°N, 73.6820°W)
Time: 04:20:55
(UTC-04:00)

ISS - Pass Details

Date: 27 June 2022
Orbit: 412 x 420 km, 51.6° (Epoch: 11 August)

Event Time Altitude Azimuth Distance (km) Brightness Sun altitude
Exits shadow 03:28:34 21° 156° (SSE) 1,038 -2.1 -16.3°
Maximum altitude 03:29:25 23° 133° (SE) 975 -2.0 -16.2°
Drops below altitude 10° 03:32:13 10° 80° (E) 1,547 -0.2 -15.9°
Sets 03:34:41 0° 65° (ENE) 2,445 1.3 -15.6°
